Regional Weather Roundup
Issued by NWS

Home | Current Version | Previous Version | Text Only | Print | Product List | Glossary Off
Versions: 1 2 3 4 5 6 7 8 9 10 11 12 13 14 15 16 17 18 19 20 21 22 23 24 25 26 27 28 29 30 31 32 33 34 35 36 37 38 39 40 41 42 43 44 45 46 47 48 49 50

442
ASUS43 KMPX 041201
RWRMN
WEATHER ROUNDUP FOR MINNESOTA
NATIONAL WEATHER SERVICE TWIN CITIES/CHANHASSEN MN
700 AM CDT WED MAY 04 2016


NOTE: "FAIR" INDICATES FEW OR NO CLOUDS BELOW 12,000 FEET WITH NO
SIGNIFICANT WEATHER AND/OR OBSTRUCTIONS TO VISIBILITY. N/A MEANS
CURRENT SKY AND/OR WEATHER CONDITIONS ARE NOT AVAILABLE.

MNZ060>063-068>070-041300-
   Twin Cities Metro

CITY           SKY/WX    TMP DP  RH WIND       PRES   REMARKS
TWIN CITIES    CLEAR     48  33  56 N8        29.96R
6HR MIN TEMP:  45; 6HR MAX TEMP:  56;

ST PAUL        CLEAR     45  35  68 NW9       29.97R
CRYSTAL        CLEAR     47  34  60 NW8       29.96R
EDEN PRAIRIE   CLEAR     48  33  56 NW6       29.96R
6HR MIN TEMP:  45; 6HR MAX TEMP:  56;

SOUTH ST PAUL  CLEAR     48  33  56 N7        29.95R
LAKE ELMO      FAIR      45  34  65 N6        29.96R
$$
MNZ001>005-007-008-013>017-022>024-027-028-041300-
   Northwest Minnesota

CITY           SKY/WX    TMP DP  RH WIND       PRES   REMARKS
BEMIDJI        CLEAR     36  34  92 NW3       30.03R
HALLOCK        CLEAR     36  32  87 N3        30.08R
ROSEAU         CLEAR     39  34  81 NW3       30.06S
WARROAD        CLEAR     37  34  87 NW5       30.06R
THIEF RVR FALL CLEAR     39  34  81 N7        30.07R
CROOKSTON      CLEAR     36  30  80 N7        30.08R
FOSSTON        CLEAR     36  32  87 N3        30.05S
DETROIT LAKES  CLEAR     37  36  93 NW6       30.05R
MOORHEAD       CLEAR     37  28  70 N5        30.07R
PARK RAPIDS    CLEAR     41  34  76 N7        30.02R
MAHNOMEN       FAIR      37  33  88 N5        30.04R
$$
MNZ006-009>011-018-025>026-041300-
   North Central Minnesota

CITY           SKY/WX    TMP DP  RH WIND       PRES   REMARKS
BAUDETTE       CLEAR     41  34  76 N8        30.04R
FLAG ISLAND    CLEAR     43  34  70 N9        30.05R
INTL FALLS     SUNNY     37  32  82 NW8       30.01R
6HR MIN TEMP:  33; 6HR MAX TEMP:  43;

WASKISH        PTCLDY    43  36  75 N6        30.03R
BIG FORK       SUNNY     37  30  75 NW3       30.01R
LONGVILLE      CLEAR     37  36  93 CALM      30.00R
GRAND RAPIDS   SUNNY     37  30  75 N7        30.00R
CRANE LAKE     SUNNY     32  30  93 N3        30.00R
ORR            SUNNY     39  30  70 N3        29.96R
COOK           SUNNY     36  32  87 CALM      29.98R
WALKER         FAIR      36  32  86 CALM      30.01R
$$
MNZ012-019>021-037-041300-
   Northeast Minnesota

CITY           SKY/WX    TMP DP  RH WIND       PRES   REMARKS
DULUTH         SUNNY     41  32  70 N9        29.93R
6HR MIN TEMP:  39; 6HR MAX TEMP:  46;

ELY            SUNNY     39  32  75 N8        29.94R
HIBBING        SUNNY     38  32  79 N12       29.96R
EVELETH        SUNNY     43  32  65 N7        29.97R
DULUTH HARBOR  SUNNY     45  37  76 N7        29.96R
TWO HARBORS    SUNNY     43  34  70 NW5       29.91R
SILVER BAY     SUNNY     43  32  65 NW5       29.90R
GRAND MARAIS     N/A     43  30  60 VRB7      29.90R
G MARAIS ARPRT PTSUNNY   36  27  69 N12       29.88R
$$
MNZ029>031-032-039>041-046>048-054>057-064-041300-
   West Central Minnesota

CITY           SKY/WX    TMP DP  RH WIND       PRES   REMARKS
FERGUS FALLS   CLEAR     39  34  81 N5        30.03R
WHEATON        CLEAR     43  36  75 W6        30.07R
MORRIS         CLEAR     37  32  81 NW6       30.03R
ALEXANDRIA     CLEAR     43  36  76 NW5       30.03R
ELBOW LAKE     FAIR      42  38  85 W3        30.04R
WADENA         CLEAR     37  32  81 NW6       30.02R
GLENWOOD       CLEAR     41  36  81 NW6       30.02R
APPLETON       CLEAR     41  34  75 N6        30.03R
BENSON         CLEAR     37  32  81 N6        30.03R
ORTONVILLE     CLEAR     43  34  70 NW6       30.04S
MADISON        CLEAR     41  34  75 NW7       30.04R
WILLMAR        FAIR      39  34  81 NW7       30.03R
$$
MNZ033>034-036-042>043-049>051-058-059-041300-
   Central Minnesota

CITY           SKY/WX    TMP DP  RH WIND       PRES   REMARKS
ST CLOUD       CLEAR     40  33  76 NW3       29.98R
6HR MIN TEMP:  37; 6HR MAX TEMP:  50;

SAUK CENTRE    FAIR      38  33  83 CALM      30.02R
PAYNESVILLE    CLEAR     39  33  78 W5        30.01R
AITKIN         CLEAR     43  32  65 NW3       29.97R
PINE RIVER     CLEAR     39  34  81 CALM      30.04R
BRAINERD       CLEAR     42  35  76 N7        30.00R
STAPLES        CLEAR     39  34  81 NW6       30.01R
LONG PRAIRIE   FAIR      37  32  81 CALM      30.01R
LITTLE FALLS   CLEAR     36  32  87 CALM      30.00R
LITCHFIELD     CLEAR     45  34  65 NW7       30.01R
BUFFALO        CLEAR     44  33  67 NW6       29.99R
MAPLE LAKE     CLEAR     43  36  74 W3        29.99R
HUTCHINSON     CLEAR     44  36  75 NW6       30.01R
$$
MNZ037-044-045-052-053-041300-
   East Central Minnesota

CITY           SKY/WX    TMP DP  RH WIND       PRES   REMARKS
PRINCETON      CLEAR     43  36  75 NW5       29.98R
MORA           CLEAR     39  32  75 NW5       29.98R
CAMBRIDGE      CLEAR     45  32  61 CALM      29.95R
RUSH CITY      SUNNY     41  32  71 NW6       29.96R
MOOSE LAKE     SUNNY     41  32  70 N7        29.94R
HINCKLEY       CLOUDY    43  32  65 NW5       29.96R
CLOQUET        SUNNY     41  30  65 NW8       29.95R
MCGREGOR       SUNNY     39  34  81 NW7       29.98R
$$
MNZ071>073-080-081-089-090-097-098-041300-
   Southwest Minnesota

CITY           SKY/WX    TMP DP  RH WIND       PRES   REMARKS
MONTEVIDEO     CLEAR     43  34  70 N5        30.04R
GRANITE FALLS  CLEAR     44  35  70 NW6       30.04R
CANBY          CLEAR     43  36  76 NW7       30.05R
MARSHALL       CLEAR     39  33  79 NW8       30.04R
REDWOOD FALLS  CLEAR     45  32  60 NW8       30.01R
OLIVIA         CLEAR     39  32  75 NW6       30.01R
PIPESTONE      CLEAR     43  34  70 N3        30.03R
WINDOM         CLEAR     43  34  70 N9        30.00R
WORTHINGTON    CLEAR     42  35  76 N9        30.01R
JACKSON        CLEAR     43  32  65 N5        29.99R
TRACY          CLEAR     42  35  73 NW9       30.03R
SLAYTON        CLEAR     42  33  71 N8        30.02R
$$
MNZ065>067-074>077-082>085-091>093-041300-
   South Central Minnesota

CITY           SKY/WX    TMP DP  RH WIND       PRES   REMARKS
MANKATO        CLEAR     45  32  61 N8        29.97R
NEW ULM        CLEAR     43  34  70 NW7       29.99R
ST JAMES       CLEAR     37  30  75 NW6       30.00R
FAIRMONT       CLEAR     45  30  57 N8        29.97R
GLENCOE        CLEAR     45  37  72 NW5       29.98R
OWATONNA       CLEAR     43  32  65 N3        29.95R
WASECA         CLEAR     41  32  70 NW6       29.97R
ALBERT LEA     CLEAR     45  34  65 N7        29.95R
$$
MNZ078>079-086>088-094>096-041300-
   Southeast Minnesota

CITY           SKY/WX    TMP DP  RH WIND       PRES   REMARKS
ROCHESTER      CLEAR     44  35  70 N9        29.93R
6HR MIN TEMP:  42; 6HR MAX TEMP:  51;

RED WING       SUNNY     45  34  65 NW5       29.93R
STANTON        CLEAR     45  34  66 NW7       29.94R
DODGE CENTER   CLEAR     45  34  65 N6        29.93R
WINONA         SUNNY     46  36  66 NW7       29.91R
AUSTIN         CLEAR     43  34  70 N5        29.93R
PRESTON        SUNNY     42  34  73 N6        29.91R
$$
ABBREVIATIONS USED IN REMARKS
   TC - TEMPERATURES IN CELSIUS
  WCI - WIND CHILL INDEX
   HX - HEAT INDEX
  VSB - VISIBILITY
$$




USA.gov is the U.S. government's official web portal to all federal, state and local government web resources and services.